Preview of NWS' New Version of Forecast
This preview is not operational and should not be used for support decisions.

Regional Weather Roundup (RWR)

Issued by National Weather Service (NWS)

                            
000
ASUS45 KBOI 241110
RWRID 

IDAHO REGIONAL WEATHER ROUNDUP
NATIONAL WEATHER SERVICE BOISE ID
500 AM MDT WED APR 24 2019

NOTE: "FAIR" INDICATES FEW OR NO CLOUDS BELOW 12000 FEET
WITH NO SIGNIFICANT WEATHER AND/OR OBSTRUCTIONS TO VISIBILITY

IDZ012-014-241200-
SOUTHWEST IDAHO

  
CITY           SKY/WX    TMP DP  RH WIND       PRES   REMARKS
BOISE          CLEAR     51  46  83 S6        30.05R                  
CALDWELL       CLEAR     50  50 100 W7        30.06R                  
MOUNTAIN HOME  CLEAR     47  47 100 NW5       30.04S                  
$$

IDZ016-017-241200-
SOUTHCENTRAL IDAHO

  
CITY           SKY/WX    TMP DP  RH WIND       PRES   REMARKS
BURLEY         PTCLDY    48  41  76 SW10      30.05S                  
JEROME         PTCLDY    50  43  77 S5        30.07S                  
TWIN FALLS     PTCLDY    50  42  74 S14       30.07S                  
$$

IDZ019>023-241200-
SOUTHEAST IDAHO

  
CITY           SKY/WX    TMP DP  RH WIND       PRES   REMARKS
IDAHO FALLS    CLEAR     44  38  79 SW10      30.05R                  
POCATELLO      PTCLDY    52  40  63 SW16      30.07R                  
REXBURG        CLEAR     48  38  68 S12       30.04R                  
$$

IDZ006-010-011-018-031-032-241200-
CENTRAL IDAHO MOUNTAINS

  
CITY           SKY/WX    TMP DP  RH WIND       PRES   REMARKS
MCCALL         CLOUDY    39  36  89 CALM      30.08S                  
HAILEY         CLEAR     41  36  81 NW10      30.10S                  
STANLEY          N/A     31  28  89 CALM      30.15S                  
SALMON         CLOUDY    47  41  80 S6        30.04F                  
CHALLIS        CLEAR     46  35  65 SE5       30.07S                  
$$

IDZ002-004-006-007-026-241200-
NORTHERN IDAHO

  
CITY           SKY/WX    TMP DP  RH WIND       PRES   REMARKS
LEWISTON       CLOUDY    55  37  50 W5        30.08R                  
LOWELL           N/A     50  50 100 CALM      30.09R                  
COEUR D'ALENE  CLEAR     42  35  76 S5        30.05R                  
MULLAN PASS    CLOUDY    35  29  78 VRB6      30.03R WCI  30          
$$